ISS (ZARYA) 1 25544U 98067A 21066.62808894 .00001399 00000-0 33502-4 0 9999 2 25544 51.6449 125.0413 0003365 80.3323 78.7298 15.49048400272853 KESTREL EYE IIM (KE2M) 1 42982U 98067NE 21066.21572320 .00046086 00000-0 20521-3 0 9999 2 42982 51.6324 9.5259 0003379 53.9422 306.1894 15.83812234192498 DELLINGR (RBLE) 1 43021U 98067NJ 21066.23387245 .00083174 00000-0 30837-3 0 9996 2 43021 51.6304 5.1629 0001323 85.5996 274.5160 15.87378165188323 TEMPEST-D 1 43547U 98067NV 21066.03409825 .00117953 00000-0 65625-3 0 9992 2 43547 51.6355 57.3979 0002880 4.0880 356.0144 15.78602305150699 RADSAT-G 1 43553U 98067PB 21066.27407382 .00204929 27905-4 47283-3 0 9998 2 43553 51.6360 19.9412 0003550 83.1472 276.9941 15.96801941151646 AEROCUBE 12A 1 43556U 18046C 21066.08331864 .00003241 00000-0 11817-3 0 9991 2 43556 51.6392 282.6109 0008351 152.3971 207.7454 15.31111636147597 AEROCUBE 12B 1 43557U 18046D 21065.88015183 .00003116 00000-0 11579-3 0 9998 2 43557 51.6402 284.9791 0008435 151.4652 208.6791 15.30617309147491 LEMUR-2-VU 1 43558U 18046E 21065.85299759 .00003749 00000-0 12746-3 0 9998 2 43558 51.6400 277.4841 0007621 155.8227 204.3113 15.32956016147635 LEMUR-2-ALEXANDER 1 43559U 18046F 21065.85440086 .00003969 00000-0 13338-3 0 9992 2 43559 51.6396 276.7631 0007591 155.6541 204.4800 15.33172458147424 LEMUR-2-YUASA 1 43560U 18046G 21065.94787140 .00002434 00000-0 86996-4 0 9996 2 43560 51.6395 277.3633 0007591 167.3836 192.7337 15.32898908147643 LEMUR-2-TOMHENDERSON 1 43561U 18046H 21065.94307086 .00002918 00000-0 10308-3 0 9994 2 43561 51.6395 278.0680 0007759 166.4388 193.6803 15.32547603147193 1998-067PN 1 43638U 98067PN 21066.32628715 .00034389 00000-0 23320-3 0 9993 2 43638 51.6339 53.3033 0001763 11.7933 348.3108 15.74637501137929 1998-067PP 1 43639U 98067PP 21066.26193342 .00745208 31992-3 70253-3 0 9993 2 43639 51.6214 23.1952 0003578 144.8840 215.2411 16.11407865138322 STARS-ME 1 43640U 98067PQ 21066.31838935 .00066949 00000-0 34374-3 0 9990 2 43640 51.6312 44.1084 0002043 9.6001 350.5040 15.80601245138059 ISS DEB (SEDA-AP) 1 43870U 98067PU 21065.77670765 .00006945 00000-0 87789-4 0 9998 2 43870 51.6360 88.8210 0003506 318.9723 41.1006 15.60796819125584 CATSAT-2 1 44029U 98067PV 21066.25014308 .00163597 20888-4 53413-3 0 9997 2 44029 51.6389 48.3551 0003254 68.5744 291.5609 15.90329252119895 DELPHINI 1 44030U 98067PW 21066.21770656 .00747499 30945-3 81643-3 0 9999 2 44030 51.6219 40.1848 0003816 113.8445 246.2969 16.09177707119965 UNITE 1 44031U 98067PX 21065.89449565 .00032415 00000-0 25976-3 0 9993 2 44031 51.6374 72.3222 0002911 11.5963 348.5101 15.70725137119513 CATSAT-1 1 44033U 98067PZ 21065.93547381 .00153851 00000-0 49027-3 0 9996 2 44033 51.6387 50.0143 0003297 58.9285 301.2045 15.90156152119750 ISS DEB 1 44303U 98067QA 21066.13538156 .00007434 00000-0 10505-3 0 9993 2 44303 51.6392 106.3847 0004307 224.6212 135.4433 15.57668132100653 ISS DEB 1 44304U 98067QB 21066.37042416 .00539841 14042-3 97711-3 0 9999 2 44304 51.6283 64.8899 0003816 82.0714 278.0729 16.00935903101234 ISS DEB 1 44306U 98067QD 21065.80729220 .00008825 00000-0 12176-3 0 9994 2 44306 51.6377 107.8530 0005341 220.5517 139.5078 15.58038170100616 RAAVANA-1 1 44329U 98067QE 21065.47658223 .00035378 00000-0 31456-3 0 9991 2 44329 51.6360 92.8857 0003485 286.5734 73.4880 15.68152838 97956 UGUISU 1 44330U 98067QF 21066.46866105 .00036584 00000-0 32753-3 0 9994 2 44330 51.6337 88.1931 0003484 289.0618 71.0001 15.67966619 98084 NEPALISAT-1 1 44331U 98067QG 21065.78717379 .00034426 00000-0 30634-3 0 9996 2 44331 51.6337 91.1422 0003541 290.1604 69.9012 15.68146256 97991 SPOOQY-1 1 44332U 98067QH 21066.08009884 .00032930 00000-0 29847-3 0 9998 2 44332 51.6346 90.1245 0003047 297.4618 62.6068 15.67718338 97996 RED-EYE 1 (PINOT) 1 44364U 98067QJ 21065.83510440 .00007590 00000-0 10760-3 0 9998 2 44364 51.6397 108.8653 0005678 221.0359 139.0207 15.57542828 96186 IOD-1 GEMS 1 44385U 98067QK 21066.14981199 .00242650 00000-0 84253-3 0 9995 2 44385 51.6329 74.8095 0003206 50.5279 309.6009 15.88211297 95717 SWIATOWID 1 44426U 98067QL 21066.42596825 .00775398 31495-3 10606-2 0 9995 2 44426 51.6284 66.4266 0004045 64.8702 85.7971 16.05625804 95860 KRAKSAT 1 44427U 98067QM 21066.48964612 .00020752 00000-0 23143-3 0 9998 2 44427 51.6400 97.1972 0002154 210.8554 294.0467 15.62770277 95506 VCC A 1 44428U 98067QN 21066.44153159 .00031440 00000-0 29459-3 0 9993 2 44428 51.6372 91.1473 0000892 278.2768 81.8127 15.66922960 95582 ENTRYSAT 1 44429U 98067QP 21066.13683712 .00048833 00000-0 38251-3 0 9997 2 44429 51.6327 87.5027 0000660 341.2379 18.8594 15.71079750 95606 VCC C 1 44430U 98067QQ 21065.75681733 .00101788 00000-0 56781-3 0 9994 2 44430 51.6300 82.6790 0002575 25.9272 334.1858 15.78606443 94469 VCC B 1 44431U 98067QR 21065.78471909 .00031806 00000-0 29548-3 0 9994 2 44431 51.6345 94.1971 0000969 274.0305 86.0580 15.67129633 95428 ISS DEB 1 44788U 98067QT 21066.48491902 .00099133 00000-0 64019-3 0 9991 2 44788 51.6338 94.3630 0002616 337.8354 22.2532 15.75309380 74516 ISS DEB 1 44789U 98067QU 21065.81149126 .00076358 00000-0 57035-3 0 9990 2 44789 51.6353 100.4002 0003021 308.6001 51.4726 15.72022787 74364 RWASAT-1 1 44790U 98067QV 21066.53946214 .00011033 00000-0 15478-3 0 9999 2 44790 51.6397 110.9759 0006652 275.3303 232.6331 15.57277279 73553 AQT-D 1 44791U 98067QW 21066.48824919 .00011612 00000-0 16215-3 0 9994 2 44791 51.6408 111.7643 0005437 250.4602 109.5803 15.57348201 73543 NARSSCUBE-1 1 44792U 98067QX 21066.47786514 .00021986 00000-0 26045-3 0 9999 2 44792 51.6378 107.1198 0003741 284.8356 75.2223 15.61159311 73606 STPSAT-4 1 45043U 98067QY 21066.17391257 .00006769 00000-0 11485-3 0 9996 2 45043 51.6406 123.0836 0004739 260.6486 99.3969 15.52756716 62602 HARP 1 45256U 98067QZ 21066.17066329 .00013506 00000-0 19673-3 0 9995 2 45256 51.6412 118.6092 0005805 255.4662 104.5686 15.56033152 59339 1998-067RA 1 45257U 98067RA 21066.41050425 .00011475 00000-0 17271-3 0 9998 2 45257 51.6400 117.9277 0006559 258.8608 101.1646 15.55307623 59366 PHOENIX 1 45258U 98067RB 21066.16197775 .00009116 00000-0 14258-3 0 9992 2 45258 51.6398 120.0038 0004939 235.9935 124.0587 15.54550023 59284 1998-067RC 1 45259U 98067RC 21065.70224118 .00016841 00000-0 22959-3 0 9994 2 45259 51.6390 119.1950 0005532 258.0632 101.9740 15.57627571 59280 CRYOCUBE 1 45260U 98067RD 21066.12432943 .00021831 00000-0 29049-3 0 9992 2 45260 51.6390 116.7668 0005751 262.3506 97.6833 15.58080338 59360 AZTECHSAT-1 1 45261U 98067RE 21065.83150164 .00022845 00000-0 28633-3 0 9996 2 45261 51.6379 116.3045 0005544 262.5020 97.5343 15.59642851 59333 RADSAT-U 1 45262U 98067RF 21065.87022352 .00011197 00000-0 16734-3 0 9995 2 45262 51.6417 120.3518 0005770 293.4586 66.5798 15.55536410 59292 QARMAN 1 45263U 98067RG 21065.87588074 .00017420 00000-0 23863-3 0 9990 2 45263 51.6393 118.8520 0005477 254.6291 105.4096 15.57469725 59332 SORTIE 1 45264U 98067RH 21065.77773947 .00006807 00000-0 11294-3 0 9997 2 45264 51.6414 123.4644 0006571 258.0326 101.9927 15.53372663 59232 ICS-EF (ISS DEB) 1 45265U 98067RJ 21066.41718699 .00004054 00000-0 74903-4 0 9992 2 45265 51.6410 123.2002 0004700 259.9730 100.0729 15.51542341 58976 PROGRESS-MS 14 1 45595U 20026A 21065.59387550 .00001540 00000-0 36065-4 0 9998 2 45595 51.6452 130.1583 0003369 76.5848 71.3110 15.49045139272693 G-SAT 1 45597U 98067RK 21065.43711343 .00011976 00000-0 18091-3 0 9996 2 45597 51.6403 124.1872 0004391 318.1236 41.9419 15.55167276 48563 QUETZAL-1 1 45598U 98067RL 21066.51473744 .00014959 00000-0 21709-3 0 9991 2 45598 51.6401 118.6315 0002804 351.6758 8.4186 15.56046399 48663 RED-EYE 2 (MERLOT) 1 45800U 98067RM 21066.41529248 .00005867 00000-0 10283-3 0 9990 2 45800 51.6414 123.2072 0000914 308.6736 51.4172 15.52115244 40839 RED-EYE 3 (CABERNET) 1 45809U 98067RN 21066.41580512 .00007547 00000-0 13002-3 0 9999 2 45809 51.6415 123.2108 0000970 286.2330 73.8553 15.52130241 39813 DEMI 1 45916U 98067RP 21066.52497632 .00014904 00000-0 22282-3 0 9995 2 45916 51.6411 120.2034 0001401 194.3050 165.7901 15.55234781 36857 TECHEDSAT 10 1 45917U 98067RQ 21066.28123262 .00742311 24640-3 18356-2 0 9999 2 45917 51.6251 104.9288 0007572 35.9357 324.2159 15.95320909 36988 SOYUZ-MS 17 1 46613U 20072A 21065.59387550 .00001540 00000-0 36065-4 0 9991 2 46613 51.6452 130.1583 0003369 76.5848 71.3110 15.49045139272695 CREW DRAGON 1 1 46920U 20084A 21065.59387550 .00001540 00000-0 36065-4 0 9995 2 46920 51.6452 130.1583 0003369 76.5848 71.3110 15.49045139272696 SPOC 1 46921U 98067RR 21065.78524273 .00008768 00000-0 14864-3 0 9999 2 46921 51.6420 127.2594 0002636 52.3392 307.7836 15.52354056 18901 BOBCAT-1 1 46922U 98067RS 21066.20544843 .00012092 00000-0 19618-3 0 9990 2 46922 51.6428 124.8218 0002373 51.4222 308.6980 15.53179463 18926 NEUTRON-1 1 46923U 98067RT 21065.47095501 .00008157 00000-0 13938-3 0 9997 2 46923 51.6421 128.9091 0002511 63.4056 296.7191 15.52237628 18889 1998-067RU 1 46924U 98067RU 21065.57495485 .00020670 00000-0 31256-3 0 9991 2 46924 51.6407 127.3531 0001900 71.0964 289.0232 15.54661402 18884 LEMUR-2-BAXTER-OLIVER 1 46925U 98067RV 21066.52206576 .00022958 00000-0 34007-3 0 9997 2 46925 51.6424 122.4403 0002243 84.3954 275.7292 15.55156737 18985 LEMUR-2-DJARA 1 46926U 98067RW 21066.14807248 .00021454 00000-0 32214-3 0 9997 2 46926 51.6424 124.4399 0001964 69.7270 290.3932 15.54829136 18948 DESCENT 1 46927U 98067RX 21065.73181829 .00007761 00000-0 13310-3 0 9993 2 46927 51.6420 127.6494 0002504 82.7137 277.4138 15.52214980 18839 PROGRESS-MS 16 1 47618U 21011A 21065.59387550 .00001540 00000-0 36065-4 0 9991 2 47618 51.6452 130.1583 0003369 76.5848 71.3110 15.49045139272691 CYGNUS NG-15 1 47689U 21013A 21065.59387550 .00001540 00000-0 36065-4 0 9991 2 47689 51.6452 130.1583 0003369 76.5848 71.3110 15.49045139272699 ANTARES R/B 1 47690U 21013B 21060.31897094 .18101689 12336-4 29026-3 0 9998 2 47690 51.6198 151.8890 0015286 182.8833 286.2960 16.46916191 1384